Flag for Canada Weather past 2 weeks in Steinbach, Manitoba, Canada

Now
14 °F

Cold.


Feels Like: -3 °F
Forecast: -14 / 8 °F
Wind: 17 mph from North

Location: Winnipeg The Forks

Current Time: Jan 30, 2015 at 10:52:56 PM

Latest Report: Jan 30, 2015 at 10:00 PM


Visibility: N/A

Pressure: 30.31 "Hg

Humidity: 73%

Dew point: 7 °F

Location of SteinbachLocation

Historic Weather in Steinbach — Graph

°F

Steinbach temperature yesterday

Maximum temperature yesterday: 16 °F (at 12:00 AM)
Minimum temperature yesterday: 1 °F (at 10:00 PM)
Average temperature yesterday: 6 °F

Past Weeks' High & Low Weather Summary

 TemperatureHumidityPressure
High40 °F (Jan 23, 3:00 PM)100% (Jan 20, 2:00 PM)30.63 "Hg (Jan 20, 2:00 PM)
Low-3 °F (Jan 16, 7:00 AM)62% (Jan 25, 11:00 AM)29.34 "Hg (Jan 17, 3:00 AM)
Average20 °F80%29.98 "Hg
* Reported Jan 15 9:00 PM — Jan 30 9:00 PM, Steinbach, Weather by CustomWeather, © 2014

Note: Actual official high and low records may vary slightly from our data, if they occured in-between our weather recording intervals... More about our weather records

Advertising

Steinbach weather history for previous 24 hours

 ConditionsComfort  
Time TempWeatherWind HumidityBarometerVisibility
9:00 PM
Jan 30
16 °FCold.14 mph79%30.28 "HgN/A
8:00 PM16 °FCold.14 mph81%30.26 "HgN/A
7:00 PM17 °FCold.12 mph82%30.24 "HgN/A
6:00 PM19 °FCold.8 mph84%30.22 "HgN/A
5:00 PM18 °FCold.5 mph84%30.20 "HgN/A
4:00 PM18 °FCold.5 mph83%30.19 "HgN/A
3:00 PM17 °FCold.7 mph82%30.19 "HgN/A
2:00 PM16 °FCold.12 mph80%30.20 "HgN/A
1:00 PM15 °FCold.8 mph78%30.22 "HgN/A
12:00 PM13 °FCold.10 mph76%30.26 "HgN/A
11:00 AM11 °FCold.9 mph85%30.30 "HgN/A
10:00 AM9 °FFrigid.6 mph82%30.32 "HgN/A
9:00 AM10 °FFrigid.5 mph75%30.34 "HgN/A
8:00 AM7 °FFrigid.12 mph79%30.37 "HgN/A
7:00 AM6 °FFrigid.6 mph78%30.39 "HgN/A
6:00 AM5 °FFrigid.7 mph75%30.43 "HgN/A
5:00 AM5 °FFrigid.5 mph70%30.45 "HgN/A
4:00 AM4 °FFrigid.3 mph67%30.50 "HgN/A
3:00 AM4 °FFrigid.3 mph72%30.53 "HgN/A
2:00 AM4 °FFrigid.2 mph70%30.55 "HgN/A
1:00 AM3 °FFrigid.2 mph69%30.57 "HgN/A
12:00 AM3 °FFrigid.3 mph71%30.59 "HgN/A
11:00 PM
Jan 29
3 °FFrigid.2 mph71%30.60 "HgN/A
10:00 PM1 °FFrigid.2 mph73%30.62 "HgN/A
Weather by CustomWeather, © 2014

See weather overviewHow to use our weather pages